Flag for Uruguay Weather past 2 weeks in Maldonado, Uruguay

Now
66 °F

Sunny.


Feels Like: 66 °F
Forecast: 56 / 78 °F
Wind: 5 mph from Northeast

Location: Capitan Corbeta

Current Time: Apr 26, 2015 at 11:14:48 AM

Latest Report: Apr 26, 2015 at 10:00 AM


Visibility: 10 mi

Pressure: 30.12 "Hg

Humidity: 64%

Dew point: 54 °F

Location of MaldonadoLocation

Historic Weather in Maldonado — Graph

°F

Maldonado temperature yesterday

Maximum temperature yesterday: 79 °F (at 1:00 PM)
Minimum temperature yesterday: 55 °F (at 12:00 AM)
Average temperature yesterday: 65 °F

Past Weeks' High & Low Weather Summary

 TemperatureHumidityPressure
High82 °F (Apr 13, 3:00 PM)100% (Apr 12, 7:00 AM)30.21 "Hg (Apr 12, 7:00 AM)
Low43 °F (Apr 12, 7:00 AM)28% (Apr 19, 2:00 PM)29.77 "Hg (Apr 19, 2:00 PM)
Average63 °F68%30.02 "Hg
* Reported Apr 11 10:00 AM — Apr 26 10:00 AM, Maldonado, Weather by CustomWeather, © 2015

Note: Actual official high and low records may vary slightly from our data, if they occured in-between our weather recording intervals... More about our weather records

Advertising

Maldonado weather history for previous 24 hours

 ConditionsComfort  
Time TempWeatherWind HumidityBarometerVisibility
10:00 AM
Sun, Apr 26
66 °FSunny.5 mph64%30.12 "Hg10 mi
9:00 AM61 °FSunny.5 mph77%30.12 "Hg10 mi
8:00 AM55 °FSunny.7 mph82%30.12 "Hg10 mi
7:00 AM54 °FSunny.7 mph88%30.09 "Hg10 mi
6:00 AM55 °FClear.6 mph88%30.07 "Hg10 mi
5:00 AM54 °FClear.3 mph88%30.07 "Hg10 mi
4:00 AM54 °FClear.3 mph88%30.07 "Hg10 mi
3:00 AM55 °FClear.5 mph82%30.07 "Hg10 mi
2:00 AM57 °FClear.5 mph82%30.07 "Hg10 mi
1:00 AM55 °FClear.6 mph88%30.07 "Hg10 mi
12:00 AM55 °FClear.6 mph82%30.07 "Hg10 mi
11:00 PM
Sat, Apr 25
55 °FClear.3 mph82%30.07 "Hg10 mi
10:00 PM57 °FClear.No wind77%30.07 "Hg10 mi
9:00 PM61 °FClear.5 mph77%30.07 "Hg10 mi
8:00 PM61 °FClear.3 mph72%30.07 "Hg10 mi
7:00 PM61 °FClear.No wind68%30.07 "HgN/A
6:00 PM68 °FClear.6 mph60%30.07 "HgN/A
5:00 PM72 °FClear.14 mph50%30.07 "HgN/A
4:00 PM75 °FClear.13 mph41%30.07 "Hg6 mi
3:00 PM77 °FClear.13 mph39%30.07 "Hg5 mi
2:00 PM79 °FClear.16 mph34%30.09 "Hg5 mi
1:00 PM79 °FClear.12 mph34%30.09 "Hg6 mi
12:00 PM77 °FClear.16 mph39%30.12 "Hg6 mi
11:00 AM75 °FSunny.12 mph39%30.15 "Hg10 mi
Weather by CustomWeather, © 2015

See weather overviewHow to use our weather pages